OBJECT D, 69100

Orbit data source: Space-Track

You're viewing an Uncataloged Satellite

Recently launched and/or uncataloged satellites may have evolving metadata. Metadata may include but not limited to: Owner, Maufacturer, Bus, Motor, and Mission.

OBJECT D, 69100 is a Chinese satellite in SSO that was launched on Fri, 15 May 2026 UTC via a LIJIAN-1 launch vehicle from the Jiuquan Satellite Launch Center, China (JSC). Unknown objects in Earth's orbit typically refer to objects detected orbiting the Earth but have not yet been identified or cataloged. These objects could be anything from previously untracked satellites, spent rocket stages, debris from satellite collisions, or even natural meteoroids temporarily captured by Earth's gravity.

Loading next visibility...
Identifier
69100, 2026-106D
Orbit
SSO
Country
Flag of CNCN / PRC
Related business
None
Manufacturer
Unknown
Mission
Operational spacecraft
Bus & Motor
Unknown
Mass
Unknown
Launch date (UTC)
2026-05-15 (1 month ago)
Launch vehicle
LIJIAN-1
Launch site
Jiuquan Satellite Launch Center, China (JSC)
Object type
Unknown
Shape & HBR
Unknown shape, 1.1 m
Radar Cross Section
Large (>1 m²)

Expand to show TLE details & history
Last TLE update: 6 hours ago

TLE from 6 hours ago
0 OBJECT D
1 69100U 26106D   26168.80535803  .00001126  00000-0  70600-4 0  9993
2 69100  97.5077 250.8776 0014518 162.3267 197.8471 15.11277282  5079
Epoch: 2026-06-17T19:19Z
TLE epoch observation values (Epoch: 2026-06-17T19:19:42.933Z)
Latitude
-0.00005°
Longitude
54.89095°
Altitude
544.932 km
Speed
7.584 km/s
True Right ascension
16h 43m 30s
True Declination
0° 00' 00"
Sunlit
Object was in full shadow at epoch
Visualization orbit readout
Latitude
Unknown
Longitude
Unknown
Altitude
Unknown
Speed
Unknown
Apparent Right ascension
Unknown
Apparent Declination
Unknown
Sunlit
N/A
Visualization observer readout
Local Sidereal Time
12:25:13
Azimuth
Unknown
Elevation
Unknown
Doppler factor
Unknown
Orbital elements
Apogee altitude
539.314 km
Perigee altitude
519.257 km
Semi-major axis
6,907.422 km
Eccentricity
0.00145
Inclination
97.5077°
RAAN
250.8776°
Arg. of periapsis
162.3267°
True anomaly
197.7962°
Mean anomaly
197.8471°
Eccentric anomaly
197.82164°
Mean motion
3.78067 °/min
Orbital period
95.22 mins
BSTAR
0.0000706
Loading maneuver chart data...
Computing Atmospheric mass density...
Loading historical data...
Loading historical data...
Loading historical data...
Loading historical data...
Loading historical data...
Loading historical data...
Loading historical data...
Other satellites on launch #106 in the year 2026 (2026-05-15 UTC)

Documentation

Showing up to 5 results
|